This demonstration page uses our WeatherBlox Daily Observations layout. Learn more.

Left ArrowRight Arrow

31.84235, -102.49876

Hourly Observations for August 27, 2015

Temp ( °F °C ) Dew Point ( °F °C ) Humidity (%) Winds ( mph kmh ) Pressure ( in mb ) Visibility ( mi km ) Precip ( " mm )
12:53 am 00:53 Clear 76 24.4 60 15.6 58 58 SSE 6 9 30.03 1017 10 16 0.00 0.00
1:53 am 01:53 Clear 74 23.3 60 15.6 62 62 SE 7 11 30.03 1017 10 16 0.00 0.00
2:53 am 02:53 Clear 74 23.3 60 15.6 62 62 SE 6 9 30.02 1017 10 16 0.00 0.00
3:53 am 03:53 Clear 73 22.8 61 16.1 66 66 SSE 5 7 30.01 1016 10 16 0.00 0.00
4:53 am 04:53 Clear 72 22.2 61 16.1 68 68 SSE 7 11 30.02 1017 10 16 0.00 0.00
5:53 am 05:53 Clear 72 22.2 61 16.1 68 68 S 6 9 30.01 1016 10 16 0.00 0.00
6:53 am 06:53 Clear 72 22.2 61 16.1 68 68 S 3 6 30.01 1016 10 16 0.00 0.00
7:53 am 07:53 Sunny 73 22.8 61 16.1 66 66 Calm 30.01 1016 10 16 0.00 0.00
8:53 am 08:53 Sunny 77 25 61 16.1 58 58 SSW 8 13 30.03 1017 10 16 0.00 0.00
9:53 am 09:53 Sunny 82 27.8 61 16.1 49 49 S 13 20 30.03 1017 10 16 0.00 0.00
10:53 am 10:53 Sunny 85 29.4 60 15.6 43 43 SSW 10 17 30.04 1017 10 16 0.00 0.00
11:53 am 11:53 Sunny 89 31.7 57 13.9 34 34 S 9 15 30.03 1017 10 16 0.00 0.00
12:53 pm 12:53 Sunny 91 32.8 54 12.2 28 28 undefined N/A 30.01 1016 10 16 0.00 0.00
1:53 pm 13:53 Sunny 93 33.9 49 9.4 22 22 SSE 13 20 29.98 1015 10 16 0.00 0.00
2:53 pm 14:53 Sunny 94 34.4 45 7.2 18 18 SSE 8 13 29.96 1014 10 16 0.00 0.00
3:53 pm 15:53 Sunny 95 35 46 7.8 19 19 SE 9 15 29.93 1014 10 16 0.00 0.00
4:53 pm 16:53 Sunny 96 35.6 44 6.7 17 17 SSE 10 17 29.91 1013 10 16 0.00 0.00
5:53 pm 17:53 Sunny 95 35 46 7.8 19 19 S 10 17 29.89 1012 10 16 0.00 0.00
6:53 pm 18:53 Sunny 95 35 46 7.8 19 19 SE 9 15 29.88 1012 10 16 0.00 0.00
7:53 pm 19:53 Sunny 91 32.8 47 8.3 22 22 SSE 8 13 29.88 1012 10 16 0.00 0.00
8:53 pm 20:53 Clear 86 30 52 11.1 31 31 SSE 6 9 29.89 1012 10 16 0.00 0.00
9:53 pm 21:53 Clear 86 30 51 10.6 30 30 S 9 15 29.90 1012 10 16 0.00 0.00
10:53 pm 22:53 Clear 84 28.9 52 11.1 33 33 S 14 22 29.91 1013 10 16 0.00 0.00
11:53 pm 23:53 Clear 83 28.3 53 11.7 36 36 S 14 22 29.90 1012 10 16 0.00 0.00

Powered by AerisWeather